1372204829327,2.34665
1372204889327,2.36814
1372204949327,2.35177
1372205009327,2.34746
1372205069327,2.37464
1372205129327,2.36348
1372205189327,2.32404
1372205249327,2.34668
1372205309327,2.34979
1372205369327,2.30659
1372205429327,2.31773
1372205489327,2.31910
1372205549327,2.30412
1372205609327,2.33774
1372205669327,2.30265
1372205729327,2.31234
1372205789327,2.32624
1372205849327,2.36227
1372205909327,2.31474
1372205969327,2.32096
1372206029327,2.32257
1372206089327,2.31310
1372206149327,2.30806
1372206209327,2.33187
1372206269327,2.32092
1372206329327,2.33750
1372206389327,2.33540
1372206449327,2.30438
1372206509327,2.31630
1372206569327,2.31930
1372206629327,2.29953
1372206689327,2.30179
1372206749327,2.28119
1372206809327,2.31218
1372206869327,2.28941
1372206929327,2.30370
1372206989327,2.27012
1372207049327,2.27932
1372207109327,2.31118
1372207169327,2.31048
1372207229327,2.28220
1372207289327,2.30268
1372207349327,2.27729
1372207409327,2.27321
1372207469327,2.27183
1372207529327,2.23719
1372207589327,2.28250
1372207649327,2.24531
1372207709327,2.23231
1372207769327,2.26775
1372207829327,2.22537
1372207889327,2.25780
1372207949327,2.27804
1372208009327,2.22726
1372208069327,2.24995
1372208129327,2.26242
1372208189327,2.23663
1372208249327,2.23982
1372208309327,2.25554
1372208369327,2.24240
1372208429337,2.25676
1372208489337,2.25903
1372208549337,2.22765
1372208609337,2.23230
1372208669337,2.23685
1372208729337,2.24066
1372208789337,2.25914
1372208849337,2.23633
1372208909337,2.23129
1372208969337,2.25045
1372209029337,2.25951
1372209089337,2.27631
1372209149337,2.22525
1372209209337,2.21913
1372209269337,2.25194
1372209329337,2.20766
1372209389337,2.21760
1372209449337,2.24833
1372209509337,2.24652
1372209569337,2.23030
1372209629337,2.22301
1372209689337,2.20662
1372209749337,2.22540
1372209809337,2.24007
1372209869337,2.22984
1372209929337,2.24727
1372209989337,2.21822
1372210049337,2.21776
1372210109337,2.22613
1372210169337,2.19626
1372210229337,2.22509
1372210289337,2.19669
1372210349337,2.21072
1372210409337,2.19642
1372210469337,2.19482
1372210529337,2.21405
1372210589337,2.23705
1372210649337,2.20812
1372210709337,2.20914
1372210769337,2.19785
1372210829337,2.19568
1372210889337,2.20310
1372210949337,2.20736
1372211009337,2.21283
1372211069337,2.21604
1372211129337,2.22576
1372211189337,2.23686
1372211249337,2.20623
1372211309337,2.23249
1372211369337,2.24071
1372211429337,2.22094
1372211489337,2.21612
1372211549337,2.22548
1372211609337,2.22196
1372211669337,2.21176
1372211729337,2.23514
1372211789337,2.21665
1372211849337,2.22408
1372211909337,2.20277
1372211969337,2.19998
1372212029346,2.21289
1372212089346,2.29628
1372212149346,2.21187
1372212209346,2.23118
1372212269346,2.19890
1372212329346,2.20573
1372212389346,2.19026
1372212449346,2.20418
1372212509346,2.22468
1372212569346,2.20585
1372212629346,2.21844
1372212689346,2.19858
1372212749346,2.19526
1372212809346,2.19633
1372212869346,2.20674
1372212929346,2.27948
1372212989346,2.22579
1372213049346,2.19117
1372213109346,2.19123
1372213169346,2.20989
1372213229346,2.23666
1372213289346,2.22206
1372213349346,2.21535
1372213409346,2.18521
1372213469346,2.19402
1372213529346,2.20510
1372213589346,2.20635
1372213649346,2.17075
1372213709346,2.18451
1372213769346,2.19505
1372213829346,2.22336
1372213889346,2.21608
1372213949346,2.21415
1372214009346,2.19343
1372214069346,2.20356
1372214129346,2.18841
1372214189346,2.21031
1372214249346,2.20648
1372214309346,2.22440
1372214369346,2.24211
1372214429346,2.19933
1372214489346,2.20952
1372214549346,2.20079
1372214609346,2.18838
1372214669346,2.21860
1372214729346,2.20301
1372214789346,2.18060
1372214849346,2.21094
1372214909346,2.22008
1372214969346,2.20808
1372215029346,2.17786
1372215089346,2.22133
1372215149346,2.21926
1372215209346,2.23751
1372215269346,2.21102
1372215329346,2.20702
1372215389346,2.20369
1372215449346,2.20784
1372215509346,2.28322
1372215569346,2.20766
1372215629356,2.19511
1372215689356,2.19837
1372215749356,2.22650
1372215809356,2.21760
1372215869356,2.19824
1372215929356,2.19477
1372215989356,2.21356
1372216049356,2.20558
1372216109356,2.20389
1372216169356,2.18973
1372216229356,2.21154
1372216289356,2.21805
1372216349356,2.21256
1372216409356,2.19176
1372216469356,2.22614
1372216529356,2.21246
1372216589356,2.21982
1372216649356,2.21031
1372216709356,2.19675
1372216769356,2.20932
1372216829356,2.19498
1372216889356,2.20294
1372216949356,2.19651
1372217009356,2.22032
1372217069356,2.21091
1372217129356,2.18176
1372217189356,2.18784
1372217249356,2.20814
1372217309356,2.20455
1372217369356,2.19831
1372217429356,2.18213
1372217489356,2.23794
1372217549356,2.21141
1372217609356,2.19112
1372217669356,2.20774
1372217729356,2.19602
1372217789356,2.19448
1372217849356,2.19728
1372217909356,2.20135
1372217969356,2.18818
1372218029356,2.19430
1372218089356,2.21148
1372218149356,2.20602
1372218209356,2.19317
1372218269356,2.20766
1372218329356,2.19362
1372218389356,2.18293
1372218449356,2.19567
1372218509356,2.15757
1372218569356,2.17807
1372218629356,2.21817
1372218689356,2.20625
1372218749356,2.20504
1372218809356,2.19956
1372218869356,2.19565
1372218929356,2.18340
1372218989356,2.19214
1372219049356,2.20979
1372219109356,2.21525
1372219169356,2.19442
1372219229365,2.19119
1372219289365,2.19471
1372219349365,2.18232
1372219409365,2.21184
1372219469365,2.20552
1372219529365,2.20191
1372219589365,2.19147
1372219649365,2.19536
1372219709365,2.18695
1372219769365,2.17760
1372219829365,2.19322
1372219889365,2.21217
1372219949365,2.21412
1372220009365,2.20634
1372220069365,2.18376
1372220129365,2.17515
1372220189365,2.18521
1372220249365,2.18076
1372220309365,2.21318
1372220369365,2.18803
1372220429365,2.20094
1372220489365,2.18556
1372220549365,2.18695
1372220609365,2.20796
1372220669365,2.18669
1372220729365,2.20355
1372220789365,2.18850
1372220849365,2.18817
1372220909365,2.20150
1372220969365,2.19910
1372221029365,2.20822
1372221089365,2.19140
1372221149365,2.21053
1372221209365,2.20602
1372221269365,2.20144
1372221329365,2.19535
1372221389365,2.18451
1372221449365,2.21463
1372221509365,2.19500
1372221569365,2.18516
1372221629365,2.17406
1372221689365,2.19443
1372221749365,2.21653
1372221809365,2.19530
1372221869365,2.20225
1372221929365,2.19008
1372221989365,2.20147
1372222049365,2.22668
1372222109365,2.19908
1372222169365,2.18675
1372222229365,2.20340
1372222289365,2.20057
1372222349365,2.19355
1372222409365,2.19483
1372222469365,2.20234
1372222529365,2.19755
1372222589365,2.19101
1372222649365,2.19226
1372222709365,2.20991
1372222769365,2.21863
1372222829374,2.19632
1372222889374,2.18676
1372222949374,2.20415
1372223009374,2.20179
1372223069374,2.19197
1372223129374,2.17809
1372223189374,2.17928
1372223249374,2.20357
1372223309374,2.17646
1372223369374,2.20328
1372223429374,2.20548
1372223489374,2.13876
1372224029374,2.18015
1372224089374,2.13186
1372224149374,2.17400
1372224209374,2.18741
1372224269374,2.18569
1372224329374,2.18149
1372224389374,2.21236
1372224449374,2.20061
1372224509374,2.18653
1372224569374,2.19585
1372224629374,2.17081
1372224689374,2.18933
1372224749374,2.19682
1372224809374,2.17296
1372224869374,2.17898
1372224929374,2.22439
1372224989374,2.18524
1372225049374,2.17288
1372225109374,2.17181
1372225169374,2.15921
1372225229374,2.17096
1372225289374,2.15932
1372225349374,2.18029
1372225409374,2.15659
1372225469374,2.18942
1372225529374,2.17352
1372225589374,2.18211
1372225649374,2.16943
1372225709374,2.16779
1372225769374,2.16237
1372225829374,2.16975
1372225889374,2.15741
1372225949374,2.16344
1372226009374,2.15170
1372226069374,2.14405
1372226129374,2.16575
1372226189374,2.18639
1372226249374,2.18231
1372226309374,2.17097
1372226369374,2.16543
1372226429383,2.18709
1372226489383,2.13652
1372226549383,2.15297
1372226609383,2.17658
1372226669383,2.14631
1372226729383,2.15769
1372226789383,2.16978
1372226849383,2.16930
1372226909383,2.17803
1372226969383,2.15599
1372227029383,2.15615
1372227089383,2.15437
1372227149383,2.16763
1372227209383,2.14662
1372227269383,2.16038
1372227329383,2.15691
1372227389383,2.15245
1372227449383,2.11927
1372227509383,2.15744
1372227569383,2.14274
1372227629383,2.11440
1372227689383,2.17658
1372227749383,2.14494
1372227809383,2.13700
1372227869383,2.13124
1372227929383,2.11581
1372227989383,2.14840
1372228049383,2.14333
1372228109383,2.15094
1372228169383,2.12044
1372228229383,2.14730
1372228289383,2.13287
1372228349383,2.12879
1372228409383,2.14087
1372228469383,2.13505
1372228529383,2.12922
1372228589383,2.16488
1372228649383,2.15293
1372228709383,2.12477
1372228769383,2.59715
1372228829383,2.13461
1372228889383,2.12008
1372228949383,2.14171
1372229009383,2.13593
1372229069383,2.14057
1372229129383,2.14945
1372229189383,2.13684
1372229249383,2.13238
1372229309383,2.13894
1372229369383,2.13856
1372229429383,2.14697
1372229489383,2.13901
1372229549383,2.12248
1372229609383,2.13548
1372229669383,2.13370
1372229729383,2.12935
1372229789383,2.14867
1372229849383,2.22219
1372229909383,2.14321
1372229969383,2.16060
1372230029392,2.14684
1372230089392,2.11932
1372230149392,2.14574
1372230209392,2.15160
1372230269392,2.12474
1372230329392,2.15565
1372230389392,2.12822
1372230449392,2.14581
1372230509392,2.12610
1372230569392,2.13419
1372230629392,2.12399
1372230689392,2.13345
1372230749392,2.11942
1372230809392,2.14413
1372230869392,2.15021
1372230929392,2.13347
1372230989392,2.13074
1372231049392,2.18069
1372231109392,2.15042
1372231169392,2.15015
1372231229392,2.12269
1372231289392,2.14153
1372231349392,2.13112
1372231409392,2.12302
1372231469392,2.12056
1372231529392,2.14225
1372231589392,2.11688
1372231649392,2.13117
1372231709392,2.13751
1372231769392,2.13752
1372231829392,2.13683
1372231889392,2.09482
1372231949392,2.15428
1372232009392,2.13180
1372232069392,2.11762
1372232129392,2.11646
1372232189392,2.14676
1372232249392,2.14684
1372232309392,2.14627
1372232369392,2.11860
1372232429392,2.13443
1372232489392,2.11163
1372232549392,2.15479
1372232609392,2.21434
1372232669392,2.13310
1372232729392,2.13268
1372232789392,2.11141
1372232849392,2.11582
1372232909392,2.12228
1372232969392,2.14164
1372233029392,2.11999
1372233089392,2.12453
1372233149392,2.11822
1372233209392,2.11902
1372233269392,2.14033
1372233329392,2.15072
1372233389392,2.12953
1372233449392,2.11637
1372233509392,2.11967
1372233569392,2.12146
1372233629401,2.12464
1372233689401,2.14760
1372233749401,2.14475
1372233809401,2.13140
1372233869401,2.14414
1372233929401,2.12774
1372233989401,2.14448
1372234049401,2.13953
1372234109401,2.14627
1372234169401,2.14538
1372234229401,2.12586
1372234289401,2.17086
1372234349401,2.13456
1372234409401,2.15090
1372234469401,2.13975
1372234529401,2.11496
1372234589401,2.13614
1372234649401,2.14837
1372234709401,2.12759
1372234769401,2.13236
1372234829401,2.14300
1372234889401,2.11373
1372234949401,2.12142
1372235009401,2.16076
1372235069401,2.11078
1372235129401,2.23514
1372235189401,2.26584
1372235249401,2.14777
1372235309401,2.18064
1372235369401,2.15185
1372235429401,2.14754
1372235489401,2.13834
1372235549401,2.12575
1372235609401,2.11631
1372235669401,2.15109
1372235729401,2.12701
1372235789401,2.13641
1372235849401,2.14317
1372235909401,2.13878
1372235969401,2.15505
1372236029401,2.16598
1372236089401,2.13461
1372236149401,2.12344
1372236209401,2.12757
1372236269401,2.13624
1372236329401,2.15900
1372236389401,2.14078
1372236449401,2.13862
1372236509401,2.12937
1372236569401,2.16487
1372236629401,2.16397
1372236689401,2.14311
1372236749401,2.11695
1372236809401,2.15037
1372236869401,2.15329
1372236929401,2.14762
1372236989401,2.13190
1372237049401,2.14963
1372237109401,2.13554
1372237169401,2.12459
1372237229410,2.11148
1372237289410,2.12049
1372237349410,2.14644
1372237409410,2.12224
1372237469410,2.11108
1372237529410,2.11855
1372237589410,2.13873
1372237649410,2.15287
1372237709410,2.12127
1372237769410,2.11391
1372237829410,2.12150
1372237889410,2.13214
1372237949410,2.13510
1372238009410,2.13090
1372238069410,2.14314
1372238129410,2.19127
1372238189410,2.21215
1372238249410,2.14692
1372238309410,2.14148
1372238369410,2.15213
1372238429410,2.14759
1372238489410,2.14316
1372238549410,2.17830
1372238609410,2.14582
1372238669410,2.14849
1372238729410,2.12224
1372238789410,2.15423
1372238849410,2.13516
1372238909410,2.13290
1372238969410,2.14966
1372239029410,2.10026
1372239089410,2.13831
1372239149410,2.16145
1372239209410,2.14346
1372239269410,2.14059
1372239329410,2.16097
1372239389410,2.13118
1372239449410,2.12600
1372239509410,2.15175
1372239569410,2.12950
1372239629410,2.15703
1372239689410,2.13414
1372239749410,2.14739
1372239809410,2.12271
1372239869410,2.14956
1372239929410,2.14443
1372239989410,2.15525
1372240049410,2.16814
1372240109410,2.12664
1372240169410,2.14070
1372240229410,2.15347
1372240289410,2.13490
1372240349410,2.14579
1372240409410,2.16295
1372240469410,2.13998
1372240529410,2.14810
1372240589410,2.13664
1372240649410,2.12633
1372240709410,2.15034
1372240769410,2.17255
1372240829419,2.12701
1372240889419,2.16358
1372240949419,2.15210
1372241009419,2.14952
1372241069419,2.15160
1372241129419,2.17125
1372241189419,2.17066
1372241249419,2.13597
1372241309419,2.13861
1372241369419,2.15409
1372241429419,2.14968
1372241489419,2.17226
1372241549419,2.14701
1372241609419,2.11979
1372241669419,2.14859
1372241729419,2.13049
1372241789419,2.14786
1372241849419,2.15888
1372241909419,2.18421
1372241969419,2.17178
1372242029419,2.14429
1372242089419,2.16337
1372242149419,2.17722
1372242209419,2.15851
1372242269419,2.16596
1372242329419,2.18978
1372242389419,2.16738
1372242449419,2.14021
1372242509419,2.13198
1372242569419,2.13855
1372242629419,2.14249
1372242689419,2.14353
1372242749419,2.14067
1372242809419,2.17254
1372242869419,2.15831
1372242929419,2.16275
1372242989419,2.13804
1372243049419,2.18008
1372243109419,2.15693
1372243169419,2.14499
1372243229419,2.14771
1372243289419,2.14900
1372243349419,2.15831
1372243409419,2.15600
1372243469419,2.19568
1372243529419,2.15362
1372243589419,2.16655
1372243649419,2.16805
1372243709419,2.13732
1372243769419,2.21144
1372243829419,2.24190
1372243889419,2.19930
1372243949419,2.22075
1372244009419,2.22429
1372244069419,2.17870
1372244129419,2.16247
1372244189419,2.17059
1372244249419,2.20384
1372244309419,2.18199
1372244369419,2.15171
1372244429427,2.16385
1372244489427,2.19314
1372244549427,2.20629
1372244609427,2.20910
1372244669427,2.19628
1372244729427,2.17852
1372244789427,2.22258
1372244849427,2.19439
1372244909427,2.17218
1372244969427,2.24046
1372245029427,2.16129
1372245089427,2.18664
1372245149427,2.17490
1372245209427,2.16180
1372245269427,2.14228
1372245329427,2.21325
1372245389427,2.17262
1372245449427,2.19149
1372245509427,2.18453
1372245569427,2.20556
1372245629427,2.18246
1372245689427,2.18765
1372245749427,2.21242
1372245809427,2.20366
1372245869427,2.20541
1372245929427,2.20411
1372245989427,2.20025
1372246049427,2.18927
1372246109427,2.17615
1372246169427,2.21101
1372246229427,2.16790
1372246289427,2.18889
1372246349427,2.20895
1372246409427,2.19366
1372246469427,2.17849
1372246529427,2.18767
1372246589427,2.23467
1372246649427,2.17479
1372246709427,2.24084
1372246769427,2.20013
1372246829427,2.20810
1372246889427,2.19291
1372246949427,2.21577
1372247009427,2.16728
1372247069427,2.19651
1372247129427,2.22080
1372247189427,2.24988
1372247249427,2.22160
1372247309427,2.22029
1372247369427,2.18784
1372247429427,2.26613
1372247489427,2.20186
1372247549427,2.17613
1372247609427,2.26522
1372247669427,2.24355
1372247729427,2.24096
1372247789427,2.19851
1372247849427,2.21004
1372247909427,2.23947
1372247969427,2.23969
1372248029436,2.26521
1372248089436,2.21596
1372248149436,2.21397
1372248209436,2.24147
1372248269436,2.19264
1372248329436,2.23001
1372248389436,2.23068
1372248449436,2.20423
1372248509436,2.21598
1372248569436,2.20947
1372248629436,2.26182
1372248689436,2.23320
1372248749436,2.24702
1372248809436,2.24462
1372248869436,2.23942
1372248929436,2.22495
1372248989436,2.23821
1372249049436,2.24278
1372249109436,2.21707
1372249169436,2.24003
1372249229436,2.26625
1372249289436,2.22603
1372249349436,2.23638
1372249409436,2.22284
1372249469436,2.23649
1372249529436,2.25478
1372249589436,2.30078
1372249649436,2.28405
1372249709436,2.24566
1372249769436,2.28068
1372249829436,2.21920
1372249889436,2.26073
1372249949436,2.25418
1372250009436,2.22635
1372250069436,2.22212
1372250129436,2.23356
1372250189436,2.26254
1372250249436,2.29889
1372250309436,2.23463
1372250369436,2.20493
1372250429436,2.27346
1372250489436,2.20018
1372250549436,2.28068
1372250609436,2.21471
1372250669436,2.23164
1372250729436,2.27135
1372250789436,2.21738
1372250849436,2.24549
1372250909436,2.15637
1372250969436,2.32121
1372251029436,2.31137
1372251089436,2.23099
1372251149436,2.25235
1372251209436,2.24488
1372251269436,2.26378
1372251329436,2.25132
1372251389436,2.29039
1372251449436,2.29662
1372251509436,2.26552
1372251569436,2.24325
1372251629458,2.26531
1372251689458,2.29195
1372251749458,2.22055
1372251809458,2.25890
1372251869458,2.26036
1372251929458,2.26729
1372251989458,2.25294
1372252049458,2.30353
1372252109458,2.31387
1372252169458,2.29318
1372252229458,2.23762
1372252289458,2.27508
1372252349458,2.27083
1372252409458,2.20919
1372252469458,2.27375
1372252529458,2.30761
1372252589458,2.28201
1372252649458,2.19214
1372252709458,2.19965
1372252769458,2.26693
1372252829458,2.21465
1372252889458,2.31634
1372252949458,2.19932
1372253009458,2.25470
1372253069458,2.27750
1372253129458,2.29560
1372253189458,2.24351
1372253249458,2.23293
1372253309458,2.25451
1372253369458,2.25035
1372253429458,2.26864
1372253489458,2.25339
1372253549458,2.25985
1372253609458,2.26980
1372253669458,2.25246
1372253729458,2.23625
1372253789458,2.27846
1372253849458,2.28237
1372253909458,2.28489
1372253969458,2.29897
1372254029458,2.28399
1372254089458,2.24167
1372254149458,2.30385
1372254209458,2.26081
1372254269458,2.29443
1372254329458,2.22130
1372254389458,2.30600
1372254449458,2.27200
1372254509458,2.24314
1372254569458,2.21457
1372254629458,2.28705
1372254689458,2.23220
1372254749458,2.25791
1372254809458,2.19798
1372254869458,2.25933
1372254929458,2.28164
1372254989458,2.25975
1372255049458,2.28251
1372255109458,2.24397
1372255169458,2.22345
1372255229467,2.29252
1372255289467,2.27602
1372255349467,2.28530
1372255409467,2.23437
1372255469467,2.22138
1372255529467,2.28899
1372255589467,2.28390
1372255649467,2.19267
1372255709467,2.20111
1372255769467,2.27097
1372255829467,2.25288
1372255889467,2.25268
1372255949467,2.29462
1372256009467,2.18265
1372256069467,2.25806
1372256129467,2.30321
1372256189467,2.22007
1372256249467,2.23109
1372256309467,2.21834
1372256369467,2.28460
1372256429467,2.14637
1372256489467,2.23169
1372256549467,2.24039
1372256609467,2.23879
1372256669467,2.19602
1372256729467,2.17923
1372256789467,2.22283
1372256849467,2.23492
1372256909467,2.20344
1372256969467,2.22971
1372257029467,2.24197
1372257089467,2.19562
1372257149467,2.29418
1372257209467,2.22955
1372257269467,2.26829
1372257329467,2.18777
1372257389467,2.21792
1372257449467,2.21956
1372257509467,2.24965
1372257569467,2.28291
1372257629467,2.19009
1372257689467,2.20091
1372257749467,2.27470
1372257809467,2.22492
1372257869467,2.23051
1372257929467,2.20789
1372257989467,2.19586
1372258049467,2.19893
1372258109467,2.20807
1372258169467,2.20612
1372258229467,2.20706
1372258289467,2.19838
1372258349467,2.21781
1372258409467,2.21982
1372258469467,2.18269
1372258529467,2.20676
1372258589467,2.24562
1372258649467,2.18399
1372258709467,2.21920
1372258769467,2.17136
1372258829477,2.21239
1372258889477,2.21342
1372258949477,2.23627
1372259009477,2.30066
1372259069477,2.18691
1372259129477,2.18438
1372259189477,2.19630
1372259249477,2.18399
1372259309477,2.19956
1372259369477,2.15878
1372259429477,2.18648
1372259489477,2.20004
1372259549477,2.19481
1372259609477,2.05141
1372259669477,2.18795
1372259729477,2.20089
1372259789477,2.17405
1372259849477,2.19471
1372259909477,2.16709
1372259969477,2.21781
1372260029477,2.17712
1372260089477,2.16771
1372260149477,2.17487
1372260209477,2.18767
1372260269477,2.17650
1372260329477,2.16641
1372260389477,2.16439
1372260449477,2.14100
1372260509477,2.19898
1372260569477,2.16348
1372260629477,2.13305
1372260689477,2.16184
1372260749477,2.14071
1372260809477,2.13990
1372260869477,2.16652
1372260929477,2.12751
1372260989477,2.18593
1372261049477,2.14713
1372261109477,2.14708
1372261169477,2.15132
1372261229477,2.11290
1372261289477,2.17972
1372261349477,2.13562
1372261409477,2.12725
1372261469477,2.13560
1372261529477,2.17010
1372261589477,2.15644
1372261649477,2.18371
1372261709477,2.12302
1372261769477,2.13416
1372261829477,2.15795
1372261889477,2.16274
1372261949477,2.15463
1372262009477,2.13350
1372262069477,2.18918
1372262129477,2.10864
1372262189477,2.13932
1372262249477,2.16303
1372262309477,2.15302
1372262369477,2.15771
1372262429486,2.15611
1372262489486,2.17391
1372262549486,2.13068
1372262609486,2.14650
1372262669486,2.15180
1372262729486,2.14274
1372262789486,2.16441
1372262849486,2.12920
1372262909486,2.11534
1372262969486,2.16926
1372263029486,2.13784
1372263089486,2.13764
1372263149486,2.11119
1372263209486,2.13614
1372263269486,2.14138
1372263329486,2.11392
1372263389486,2.17050
1372263449486,2.15285
1372263509486,2.14627
1372263569486,2.13645
1372263629486,2.14703
1372263689486,2.18176
1372263749486,2.10917
1372263809486,2.10932
1372263869486,2.24773
1372263929486,2.11818
1372263989486,2.13314
1372264049486,2.11052
1372264109486,2.08582
1372264169486,2.08905
1372264229486,2.13077
1372264289486,2.12766
1372264349486,2.14985
1372264409486,2.09849
1372264469486,2.13176
1372264529486,2.11503
1372264589486,2.13931
1372264649486,2.12210
1372264709486,2.11581
1372264769486,2.10918
1372264829486,2.11362
1372264889486,2.12020
1372264949486,2.08094
1372265009486,2.12103
1372265069486,2.06727
1372265129486,2.11435
1372265189486,2.11865
1372265249486,2.13693
1372265309486,2.08464
1372265369486,2.13354
1372265429486,2.08965
1372265489486,2.10325
1372265549486,2.12088
1372265609486,2.10661
1372265669486,2.07526
1372265729486,2.11034
1372265789486,2.08009
1372265849486,2.10048
1372265909486,2.09195
1372265969486,2.10203
1372266029496,2.09215
1372266089496,2.07032
1372266149496,2.06888
1372266209496,2.09422
1372266269496,1.92685
1372266329496,2.10825
1372266389496,2.14572
1372266449496,2.08023
1372266509496,2.07463
1372266569496,2.07006
1372266629496,2.08915
1372266689496,2.08096
1372266749496,2.06030
1372266809496,2.07575
1372266869496,2.07536
1372266929496,2.06157
1372266989496,2.08532
1372267049496,2.08653
1372267109496,2.08142
1372267169496,2.08885
1372267229496,2.04016
1372267289496,2.09786
1372267349496,2.07831
1372267409496,2.05794
1372267469496,2.08579
1372267529496,2.08763
1372267589496,2.06657
1372267649496,2.05608
1372267709496,2.08000
1372267769496,2.09602
1372267829496,2.08349
1372267889496,2.08744
1372267949496,2.06882
1372268009496,2.04881
1372268069496,2.06177
1372268129496,2.09060
1372268189496,2.08304
1372268249496,2.06723
1372268309496,2.08638
1372268369496,2.06429
1372268429496,2.07926
1372268489496,2.05253
1372268549496,2.06950
1372268609496,2.04501
1372268669496,2.10190
1372268729496,2.08667
1372268789496,2.07770
1372268849496,2.04414
1372268909496,2.09894
1372268969496,2.07949
1372269029496,2.07894
1372269089496,2.06407
1372269149496,2.04257
1372269209496,2.06728
1372269269496,2.04862
1372269329496,2.09032
1372269389496,2.07159
1372269449496,2.03578
1372269509496,2.05554
1372269569496,2.06143
1372269629506,2.06060
1372269689506,2.04904
1372269749506,2.07807
1372269809506,2.06174
1372269869506,2.09050
1372269929506,2.07244
1372269989506,2.04644
1372270049506,2.06684
1372270109506,1.98647
1372270169506,2.09547
1372270229506,2.05962
1372270289506,2.04012
1372270349506,2.05114
1372270409506,2.01480
1372270469506,2.05082
1372270529506,2.05919
1372270589506,2.05303
1372270649506,2.07271